This is the latest recevied weather packets stored in our database for station/object DC0VZ-6. If no packets are shown the sender has not sent any weather packets the latest 10 day(s).
| Time | Temp. | Humidity | Pressure | Rain* | Wind** | Luminosity | Snow |
|---|---|---|---|---|---|---|---|
| 1777547772 | 20.56° C | 5% | 994.1 hPa | 0 mm | - | - | - |
| 1777547172 | 19.44° C | 5% | 994.1 hPa | 0 mm | - | - | - |
| 1777546572 | 20° C | 5% | 994 hPa | 0 mm | - | - | - |
| 1777545972 | 19.44° C | 5% | 994 hPa | 0 mm | - | - | - |
| 1777545372 | 18.89° C | 5% | 994 hPa | 0 mm | - | - | - |
| 1777544772 | 19.44° C | 5% | 994 hPa | 0 mm | - | - | - |
| 1777544172 | 18.33° C | 5% | 994.1 hPa | 0 mm | - | - | - |
| 1777543571 | 19.44° C | 5% | 994.1 hPa | 0 mm | - | - | - |
| 1777542971 | 18.33° C | 5% | 994 hPa | 0 mm | - | - | - |
| 1777542371 | 18.33° C | 5% | 994 hPa | 0 mm | - | - | - |
| 1777541771 | 17.22° C | 5% | 993.9 hPa | 0 mm | - | - | - |
| 1777541171 | 17.22° C | 5% | 993.9 hPa | 0 mm | - | - | - |
| 1777540571 | 17.22° C | 5% | 993.9 hPa | 0 mm | - | - | - |
| 1777539971 | 16.67° C | 5% | 993.9 hPa | 0 mm | - | - | - |
| 1777539371 | 16.11° C | 5% | 994.1 hPa | 0 mm | - | - | - |
| 1777538771 | 15.56° C | 5% | 994.1 hPa | 0 mm | - | - | - |
| 1777538171 | 15° C | 5% | 994.1 hPa | 0 mm | - | - | - |
| 1777537571 | 15.56° C | 5% | 994.1 hPa | 0 mm | - | - | - |
| 1777536971 | 14.44° C | 5% | 993.9 hPa | 0 mm | - | - | - |
| 1777536371 | 13.89° C | 5% | 993.9 hPa | 0 mm | - | - | - |
| 1777535771 | 13.33° C | 5% | 993.9 hPa | 0 mm | - | - | - |
| 1777535170 | 12.22° C | 5% | 993.9 hPa | 0 mm | - | - | - |
| 1777534570 | 11.67° C | 5% | 993.4 hPa | 0 mm | - | - | - |
| 1777533970 | 11.11° C | 5% | 993.4 hPa | 0 mm | - | - | - |
| 1777533370 | 10.56° C | 5% | 992.9 hPa | 0 mm | - | - | - |
* Rain latest hour (hover to see other rain measurements)
** Current wind speed in m/s (hover to see current wind gust speed)